CW3643 Weather Reports


time (UTC)temp
C
wind
direction
speed
KPH
gust
KPH
rain 1hr
cm
rain 24hr
cm
rain mn
cm
humidity
%
barometer
mb
20200930181618 17 336 9.7 29.0 0.00 0.00 0.00 74 1017.1
20200930181019 17 334 16.1 29.0 0.00 0.00 0.00 73 1017.1
20200930180535 17 14 17.7 25.7 0.00 0.00 0.00 73 1017.1
20200930180045 18 330 14.5 29.0 0.00 0.00 0.00 73 1017.1
20200930175513 18 334 19.3 30.6 0.00 0.00 0.00 73 1017.1
20200930175025 18 349 16.1 30.6 0.00 0.00 0.00 72 1017.1
20200930174520 18 351 11.3 30.6 0.00 0.00 0.00 72 1017.2
20200930173515 18 349 12.9 27.4 0.00 0.00 0.00 72 1017.2
20200930173019 18 291 17.7 27.4 0.00 0.00 0.00 71 1017.1
20200930172530 18 318 12.9 35.4 0.00 0.00 0.00 72 1017.0
20200930172009 18 328 17.7 35.4 0.00 0.00 0.00 71 1017.1
20200930171517 18 332 20.9 32.2 0.00 0.00 0.00 71 1017.1
20200930171017 18 340 19.3 35.4 0.00 0.00 0.00 72 1017.0
20200930170530 18 304 22.5 35.4 0.00 0.00 0.00 71 1017.0
20200930170059 18 337 17.7 33.8 0.00 0.00 0.00 72 1016.9
20200930163519 19 334 27.4 33.8 0.00 0.00 0.00 72 1016.7
20200930163020 19 315 24.1 35.4 0.00 0.00 0.00 72 1016.7
20200930162526 19 298 24.1 37.0 0.00 0.00 0.00 72 1016.7
20200930162019 20 324 25.7 37.0 0.00 0.00 0.00 71 1016.6
20200930161514 20 334 22.5 35.4 0.00 0.00 0.00 71 1016.7
20200930161026 20 10 20.9 35.4 0.00 0.00 0.00 72 1016.7
20200930160520 20 324 25.7 35.4 0.00 0.00 0.00 70 1016.7
20200930160033 20 336 22.5 30.6 0.00 0.00 0.00 70 1016.7
20200930155516 20 306 20.9 30.6 0.00 0.00 0.00 70 1016.7
20200930155029 20 352 12.9 32.2 0.00 0.00 0.00 70 1016.7
20200930154020 20 327 14.5 32.2 0.00 0.00 0.00 70 1016.7
20200930153029 21 360 11.3 27.4 0.00 0.00 0.00 70 1016.7
20200930152533 21 330 14.5 27.4 0.00 0.00 0.00 70 1016.7
20200930152011 21 332 16.1 27.4 0.00 0.00 0.00 69 1016.8
20200930151515 21 282 14.5 32.2 0.00 0.00 0.00 69 1016.8
20200930151024 21 284 22.5 32.2 0.00 0.00 0.00 69 1016.8
20200930150529 21 333 20.9 32.2 0.00 0.00 0.00 69 1016.9
20200930150046 21 334 16.1 33.8 0.00 0.00 0.00 69 1016.8
20200930145537 21 321 17.7 33.8 0.00 0.00 0.00 68 1016.8
20200930145029 22 354 11.3 27.4 0.00 0.00 0.00 68 1016.8
20200930144533 22 326 14.5 29.0 0.00 0.00 0.00 68 1016.7
20200930144024 22 338 17.7 33.8 0.00 0.00 0.00 68 1016.8
20200930143523 22 315 19.3 33.8 0.00 0.00 0.00 67 1016.8
20200930143025 22 290 20.9 30.6 0.00 0.00 0.00 68 1016.7
20200930142525 21 332 22.5 32.2 0.00 0.00 0.00 68 1016.7
20200930142021 22 328 22.5 32.2 0.00 0.00 0.00 67 1016.7
20200930141522 22 342 24.1 33.8 0.00 0.00 0.00 66 1016.7
20200930141029 22 330 20.9 27.4 0.00 0.00 0.00 66 1016.7
20200930140527 22 353 16.1 27.4 0.00 0.00 0.00 66 1016.7
20200930140028 22 321 19.3 29.0 0.00 0.00 0.00 65 1016.8
20200930135518 22 319 16.1 32.2 0.00 0.00 0.00 65 1016.8
20200930134531 22 276 11.3 25.7 0.00 0.00 0.00 65 1016.8
20200930134021 22 355 14.5 27.4 0.00 0.00 0.00 66 1016.9
20200930133524 22 332 16.1 27.4 0.00 0.00 0.00 66 1016.9
20200930133024 22 303 9.7 27.4 0.00 0.00 0.00 67 1017.0
20200930132529 22 326 11.3 22.5 0.00 0.00 0.00 66 1017.0
20200930132021 22 320 6.4 25.7 0.00 0.00 0.00 67 1017.0
20200930131519 22 335 11.3 25.7 0.00 0.00 0.00 68 1017.1
20200930131025 22 318 19.3 27.4 0.00 0.00 0.00 68 1017.1
20200930130512 21 333 20.9 27.4 0.00 0.00 0.00 68 1017.1
20200930130043 22 330 17.7 25.7 0.00 0.00 0.00 68 1017.2
20200930125524 22 316 16.1 25.7 0.00 0.00 0.00 68 1017.2
20200930125020 22 39 9.7 25.7 0.00 0.00 0.00 67 1017.2
20200930124518 22 325 16.1 27.4 0.00 0.00 0.00 67 1017.3
20200930124023 22 345 17.7 27.4 0.00 0.00 0.00 67 1017.2
20200930123516 22 268 11.3 24.1 0.00 0.00 0.00 67 1017.3
20200930123027 22 334 12.9 24.1 0.00 0.00 0.00 67 1017.3
20200930122515 22 291 14.5 24.1 0.00 0.00 0.00 68 1017.4
20200930122024 22 331 12.9 25.7 0.00 0.00 0.00 68 1017.4
20200930121556 22 302 16.1 24.1 0.00 0.00 0.00 68 1017.4
20200930120531 22 320 12.9 17.7 0.00 0.00 0.00 68 1017.4
20200930120022 22 76 6.4 19.3 0.00 0.00 0.00 69 1017.5
20200930115513 21 326 9.7 22.5 0.00 0.00 0.00 69 1017.4
20200930115030 21 328 12.9 22.5 0.00 0.00 0.00 70 1017.5
20200930114533 21 8 14.5 22.5 0.00 0.00 0.00 70 1017.5
20200930114033 21 304 11.3 22.5 0.00 0.00 0.00 71 1017.5
20200930113529 21 340 11.3 22.5 0.00 0.00 0.00 72 1017.6
20200930112528 21 340 11.3 25.7 0.00 0.00 0.00 73 1017.6
20200930112032 20 360 16.1 25.7 0.00 0.00 0.00 74 1017.6
20200930111541 20 322 14.5 25.7 0.00 0.00 0.00 75 1017.7
20200930111031 20 331 16.1 24.1 0.00 0.00 0.00 76 1017.8
20200930110527 20 327 14.5 20.9 0.00 0.00 0.00 76 1017.8
20200930110045 20 322 12.9 20.9 0.00 0.00 0.00 76 1017.9
20200930104526 20 343 6.4 22.5 0.00 0.00 0.00 77 1018.0
20200930104011 20 338 9.7 22.5 0.00 0.00 0.00 77 1017.9
20200930103523 20 17 11.3 19.3 0.00 0.00 0.00 77 1018.0
20200930103033 20 309 8.0 16.1 0.00 0.00 0.00 77 1017.9
20200930102525 20 45 4.8 16.1 0.00 0.00 0.00 77 1018.0
20200930102019 20 292 6.4 20.9 0.00 0.00 0.00 78 1018.0
20200930101516 20 328 14.5 24.1 0.00 0.00 0.00 78 1018.0
20200930101019 20 319 16.1 24.1 0.00 0.00 0.00 78 1017.9
20200930100529 20 330 12.9 24.1 0.00 0.00 0.00 79 1017.9
20200930100045 19 326 12.9 24.1 0.00 0.00 0.00 79 1017.9
20200930095520 19 324 16.1 24.1 0.00 0.00 0.00 79 1017.9
20200930095017 19 293 16.1 24.1 0.00 0.00 0.00 80 1018.0
20200930094522 19 349 16.1 24.1 0.00 0.00 0.00 80 1018.0
20200930094010 19 309 14.5 19.3 0.00 0.00 0.00 80 1017.9
20200930093525 19 351 11.3 17.7 0.00 0.00 0.00 80 1018.0
20200930093112 19 326 8.0 16.1 0.00 0.00 0.00 80 1018.0
20200930092529 18 312 6.4 12.9 0.00 0.00 0.00 80 1018.0
20200930092017 18 325 4.8 12.9 0.00 0.00 0.00 81 1018.0
20200930091522 18 353 3.2 17.7 0.00 0.00 0.00 81 1017.9
20200930091025 18 324 8.0 17.7 0.00 0.00 0.00 81 1018.0
20200930090524 18 340 6.4 19.3 0.00 0.00 0.00 82 1017.9
20200930090033 18 344 8.0 22.5 0.00 0.00 0.00 82 1017.8
20200930085528 18 354 11.3 22.5 0.00 0.00 0.00 82 1017.6
20200930085019 18 274 6.4 20.9 0.00 0.00 0.00 83 1017.6
20200930084522 18 359 6.4 20.9 0.00 0.00 0.00 83 1017.6
20200930084026 18 3 4.8 20.9 0.00 0.00 0.00 83 1017.6
20200930083518 18 27 6.4 19.3 0.00 0.00 0.00 84 1017.6
20200930083040 18 309 9.7 19.3 0.00 0.00 0.00 84 1017.6
20200930082514 18 159 6.4 16.1 0.00 0.00 0.00 85 1017.6
20200930082024 17 268 3.2 16.1 0.00 0.00 0.00 85 1017.5
20200930081529 17 284 6.4 19.3 0.00 0.00 0.00 86 1017.5
20200930081016 17 354 11.3 19.3 0.00 0.00 0.00 85 1017.5
20200930080527 17 5 6.4 17.7 0.00 0.00 0.00 86 1017.4
20200930080040 17 313 9.7 19.3 0.00 0.00 0.00 86 1017.4
20200930075519 17 356 11.3 19.3 0.00 0.00 0.00 86 1017.4
20200930075019 17 6 9.7 25.7 0.00 0.00 0.00 86 1017.4
20200930074523 17 333 8.0 25.7 0.00 0.00 0.00 86 1017.4
20200930074019 17 338 9.7 22.5 0.00 0.00 0.00 87 1017.4
20200930073524 17 76 9.7 16.1 0.00 0.00 0.00 87 1017.4
20200930073026 17 309 8.0 17.7 0.00 0.00 0.00 87 1017.4
20200930072530 17 354 8.0 17.7 0.00 0.00 0.00 87 1017.4
20200930072036 16 342 4.8 16.1 0.00 0.00 0.00 87 1017.3
20200930071514 16 332 6.4 12.9 0.00 0.00 0.00 87 1017.2
20200930071027 16 354 6.4 17.7 0.00 0.00 0.00 87 1017.2
20200930070520 16 16 9.7 17.7 0.00 0.00 0.00 87 1017.1
20200930070027 16 7 6.4 16.1 0.00 0.00 0.00 87 1017.0
20200930065523 16 329 4.8 20.9 0.00 0.00 0.00 87 1016.9
20200930065021 16 337 8.0 20.9 0.00 0.00 0.00 87 1016.9
20200930064526 16 323 8.0 17.7 0.00 0.00 0.00 87 1016.9
20200930064019 16 348 9.7 22.5 0.00 0.00 0.00 87 1016.9
20200930063544 16 278 9.7 0.0 0.00 0.00 0.00 87 1016.8
20200930063020 16 21 8.0 16.1 0.00 0.00 0.00 87 1017.0
20200930061522 16 352 6.4 14.5 0.00 0.00 0.00 87 1016.8
20200930061045 16 353 3.2 12.9 0.00 0.00 0.00 87 1016.8
20200930060522 16 51 4.8 17.7 0.00 0.00 0.00 87 1016.8
20200930054518 16 336 8.0 17.7 0.00 0.00 0.00 86 1016.7
20200930054108 16 320 4.8 14.5 0.00 0.00 0.00 86 1016.6
20200930053538 16 336 4.8 14.5 0.00 0.00 0.00 86 1016.6
20200930052531 16 24 4.8 12.9 0.00 0.00 0.00 86 1016.5
20200930052019 16 4 8.0 12.9 0.00 0.00 0.00 86 1016.5
20200930051520 16 343 8.0 20.9 0.00 0.00 0.00 86 1016.5
20200930051033 16 299 11.3 20.9 0.00 0.00 0.00 86 1016.4
20200930050520 16 296 9.7 19.3 0.00 0.00 0.00 86 1016.4
20200930050032 16 327 11.3 24.1 0.00 0.00 0.00 86 1016.3
20200930045521 16 336 9.7 24.1 0.00 0.00 0.00 86 1016.4
20200930045019 16 40 4.8 16.1 0.00 0.00 0.00 86 1016.4
20200930044525 16 309 8.0 16.1 0.00 0.00 0.00 86 1016.4
20200930044026 16 322 8.0 16.1 0.00 0.00 0.00 86 1016.3
20200930043520 16 344 11.3 17.7 0.00 0.00 0.00 86 1016.4
20200930043022 16 338 9.7 17.7 0.00 0.00 0.00 86 1016.3
20200930042529 16 321 4.8 12.9 0.00 0.00 0.00 86 1016.3
20200930042020 16 332 8.0 17.7 0.00 0.00 0.00 86 1016.3
20200930041522 16 6 8.0 17.7 0.00 0.00 0.00 86 1016.3
20200930041025 16 20 9.7 17.7 0.00 0.00 0.00 86 1016.3
20200930040528 16 302 6.4 27.4 0.00 0.00 0.00 86 1016.2
20200930040029 16 43 12.9 27.4 0.00 0.00 0.00 86 1016.1
20200930035521 16 314 11.3 22.5 0.00 0.00 0.00 86 1016.1
20200930035019 16 339 9.7 22.5 0.00 0.00 0.00 85 1016.1
20200930034520 16 320 8.0 20.9 0.00 0.00 0.00 85 1016.2
20200930033020 16 17 9.7 22.5 0.00 0.00 0.00 85 1016.4
20200930032036 16 332 8.0 19.3 0.00 0.00 0.00 84 1016.4
20200930031522 16 14 8.0 19.3 0.00 0.00 0.00 84 1016.4
20200930031023 16 311 9.7 16.1 0.00 0.00 0.00 83 1016.4
20200930030043 16 288 8.0 25.7 0.00 0.00 0.00 83 1016.5
20200930024531 16 340 11.3 17.7 0.00 0.00 0.00 82 1016.5
20200930023520 16 331 12.9 19.3 0.00 0.00 0.00 82 1016.5
20200930023024 16 322 12.9 22.5 0.00 0.00 0.00 82 1016.6
20200930022518 16 351 12.9 22.5 0.00 0.00 0.00 81 1016.6
20200930022019 16 316 11.3 17.7 0.00 0.00 0.00 81 1016.6
20200930021519 16 340 11.3 17.7 0.00 0.00 0.00 80 1016.6
20200930021013 16 340 8.0 16.1 0.00 0.00 0.00 80 1016.6
20200930020526 16 305 9.7 17.7 0.00 0.00 0.00 79 1016.6
20200930020037 16 311 4.8 22.5 0.00 0.00 0.00 79 1016.7
20200930015526 16 346 9.7 22.5 0.00 0.00 0.00 78 1016.7
20200930015115 16 357 8.0 14.5 0.00 0.00 0.00 78 1016.7
20200930014527 16 332 6.4 14.5 0.00 0.00 0.00 77 1016.7
20200930014011 16 355 9.7 14.5 0.00 0.00 0.00 77 1016.8
20200930013528 16 359 8.0 19.3 0.00 0.00 0.00 77 1016.7
20200930013027 16 313 9.7 20.9 0.00 0.00 0.00 77 1016.8
20200930012519 16 353 12.9 20.9 0.00 0.00 0.00 77 1016.8
20200930012035 16 356 14.5 20.9 0.00 0.00 0.00 77 1016.8
20200930011516 16 333 11.3 22.5 0.00 0.00 0.00 77 1016.9
20200930011025 17 335 16.1 22.5 0.00 0.00 0.00 77 1017.0
20200930010530 17 343 14.5 20.9 0.00 0.00 0.00 77 1017.0
20200930010036 17 322 12.9 20.9 0.00 0.00 0.00 77 1017.0
20200930005515 17 308 14.5 19.3 0.00 0.00 0.00 77 1017.0
20200930005030 17 316 14.5 19.3 0.00 0.00 0.00 77 1017.0
20200930004532 17 297 12.9 19.3 0.00 0.00 0.00 76 1016.9
20200930004023 17 318 11.3 17.7 0.00 0.00 0.00 76 1017.0
20200930003526 17 342 9.7 14.5 0.00 0.00 0.00 76 1016.9
20200930002527 17 330 8.0 20.9 0.00 0.00 0.00 74 1017.0
20200930002029 17 337 11.3 20.9 0.00 0.00 0.00 74 1017.0
20200930001520 17 324 14.5 20.9 0.00 0.00 0.00 73 1016.9
20200930001019 17 324 14.5 20.9 0.00 0.00 0.00 73 1016.9
20200930000537 17 335 11.3 19.3 0.00 0.00 0.00 72 1017.0
20200930000027 17 336 8.0 12.9 0.00 0.00 0.00 72 1017.0
20200929235519 17 316 6.4 9.7 0.00 0.00 0.00 72 1016.9
20200929235026 17 334 3.2 8.0 0.00 0.00 0.00 71 1017.0
20200929234524 17 336 1.6 8.0 0.00 0.00 0.00 71 1017.0
20200929233527 17 329 8.0 12.9 0.00 0.00 0.00 72 1017.0
20200929233035 17 351 8.0 12.9 0.00 0.00 0.00 72 1016.9
20200929232530 17 308 9.7 12.9 0.00 0.00 0.00 72 1016.9
20200929232029 17 304 8.0 11.3 0.00 0.00 0.00 72 1016.9
20200929231537 17 344 6.4 9.7 0.00 0.00 0.00 73 1017.0
20200929231036 17 4 4.8 9.7 0.00 0.00 0.00 73 1017.0
20200929230528 17 14 4.8 11.3 0.00 0.00 0.00 73 1017.1
20200929230041 17 12 6.4 11.3 0.00 0.00 0.00 73 1017.1
20200929224522 17 337 4.8 9.7 0.00 0.00 0.00 74 1017.0
20200929223022 17 325 4.8 9.7 0.00 0.00 0.00 74 1017.0
20200929222529 17 329 3.2 11.3 0.00 0.00 0.00 74 1017.1
20200929222023 17 359 6.4 11.3 0.00 0.00 0.00 74 1017.1
20200929221532 17 320 4.8 11.3 0.00 0.00 0.00 74 1017.0
20200929221018 18 343 4.8 16.1 0.00 0.00 0.00 74 1017.0
20200929220513 18 20 8.0 16.1 0.00 0.00 0.00 74 1017.0
20200929220028 18 339 6.4 14.5 0.00 0.00 0.00 74 1017.0
20200929215512 18 311 3.2 12.9 0.00 0.00 0.00 73 1017.0
20200929214511 18 58 8.0 17.7 0.00 0.00 0.00 73 1016.9
20200929214029 18 354 8.0 17.7 0.00 0.00 0.00 73 1016.9
20200929213512 18 321 8.0 17.7 0.00 0.00 0.00 73 1016.8
20200929213024 18 324 8.0 19.3 0.00 0.00 0.00 72 1016.7
20200929212522 18 301 11.3 25.7 0.00 0.00 0.00 72 1016.6
20200929212030 18 320 12.9 25.7 0.00 0.00 0.00 71 1016.5
20200929211539 18 326 9.7 24.1 0.00 0.00 0.00 71 1016.6
20200929211027 18 337 11.3 22.5 0.00 0.00 0.00 71 1016.5
20200929210047 18 65 11.3 24.1 0.00 0.00 0.00 70 1016.4
20200929205511 18 303 11.3 24.1 0.00 0.00 0.00 69 1016.5
20200929204517 19 41 8.0 17.7 0.00 0.00 0.00 69 1016.4
20200929204015 19 320 8.0 20.9 0.00 0.00 0.00 68 1016.4
20200929203525 19 14 6.4 25.7 0.00 0.00 0.00 68 1016.3
20200929203018 19 14 14.5 32.2 0.00 0.00 0.00 68 1016.3
20200929202519 19 356 19.3 32.2 0.00 0.00 0.00 68 1016.3
20200929202022 19 329 17.7 29.0 0.00 0.00 0.00 68 1016.2
20200929201533 19 311 20.9 30.6 0.00 0.00 0.00 68 1016.1
20200929201024 19 333 19.3 29.0 0.00 0.00 0.00 68 1016.0
20200929200514 19 335 20.9 33.8 0.00 0.00 0.00 68 1016.0
20200929200029 19 304 19.3 33.8 0.00 0.00 0.00 68 1015.9
20200929195518 20 347 20.9 30.6 0.00 0.00 0.00 68 1015.9
20200929195028 20 320 20.9 30.6 0.00 0.00 0.00 67 1015.9
20200929194531 20 320 17.7 33.8 0.00 0.00 0.00 67 1015.9
20200929194019 20 311 19.3 33.8 0.00 0.00 0.00 67 1015.8
20200929193531 20 322 22.5 30.6 0.00 0.00 0.00 67 1015.8
20200929192529 20 333 20.9 29.0 0.00 0.00 0.00 68 1015.7
20200929192017 20 328 17.7 30.6 0.00 0.00 0.00 68 1015.6
20200929191514 20 355 20.9 30.6 0.00 0.00 0.00 68 1015.6
20200929191023 20 344 20.9 32.2 0.00 0.00 0.00 68 1015.5
20200929190511 21 353 20.9 32.2 0.00 0.00 0.00 68 1015.5
20200929190037 21 317 20.9 33.8 0.00 0.00 0.00 67 1015.6
20200929185534 21 348 20.9 33.8 0.00 0.00 0.00 67 1015.5
20200929185020 21 329 17.7 27.4 0.00 0.00 0.00 67 1015.5
20200929184532 21 348 20.9 32.2 0.00 0.00 0.00 67 1015.5
20200929184015 21 333 17.7 30.6 0.00 0.00 0.00 67 1015.5
20200929183523 21 343 20.9 30.6 0.00 0.00 0.00 67 1015.5
20200929183026 21 320 17.7 30.6 0.00 0.00 0.00 67 1015.4
20200929182517 22 303 20.9 30.6 0.00 0.00 0.00 66 1015.5
20200929182020 22 323 19.3 27.4 0.00 0.00 0.00 66 1015.4